This is the latest recevied weather packets stored in our database for station/object KF5WCW-1. If no packets are shown the sender has not sent any weather packets the latest 10 day(s).
| Time | Temp. | Humidity | Pressure | Rain* | Wind** | Luminosity | Snow |
|---|---|---|---|---|---|---|---|
| 1777902972 | 9.44° C | 56% | 0 hPa | 0 mm | - | - | - |
| 1777902672 | 9.44° C | 55% | 0 hPa | 0 mm | - | - | - |
| 1777902372 | 9.44° C | 55% | 0 hPa | 0 mm | - | - | - |
| 1777902072 | 9.44° C | 55% | 0 hPa | 0 mm | - | - | - |
| 1777901772 | 9.44° C | 55% | 0 hPa | 0 mm | - | - | - |
| 1777901472 | 8.89° C | 55% | 0 hPa | 0 mm | - | - | - |
| 1777901172 | 8.33° C | 57% | 0 hPa | 0 mm | - | - | - |
| 1777900872 | 7.78° C | 56% | 0 hPa | 0 mm | - | - | - |
| 1777900572 | 7.78° C | 56% | 0 hPa | 0 mm | - | - | - |
| 1777900272 | 7.22° C | 56% | 0 hPa | 0 mm | - | - | - |
| 1777899972 | 6.11° C | 60% | 0 hPa | 0 mm | - | - | - |
| 1777899672 | 6.11° C | 59% | 0 hPa | 0 mm | - | - | - |
| 1777899372 | 5.56° C | 60% | 0 hPa | 0 mm | - | - | - |
| 1777899072 | 5.56° C | 60% | 0 hPa | 0 mm | - | - | - |
| 1777898772 | 5° C | 61% | 0 hPa | 0 mm | - | - | - |
| 1777898472 | 5° C | 64% | 0 hPa | 0 mm | - | - | - |
| 1777898172 | 5° C | 66% | 0 hPa | 0 mm | - | - | - |
| 1777897872 | 5° C | 66% | 0 hPa | 0 mm | - | - | - |
| 1777897572 | 5° C | 66% | 0 hPa | 0 mm | - | - | - |
| 1777897272 | 5° C | 66% | 0 hPa | 0 mm | - | - | - |
| 1777896972 | 5° C | 67% | 0 hPa | 0 mm | - | - | - |
| 1777896672 | 5° C | 68% | 0 hPa | 0 mm | - | - | - |
| 1777896372 | 4.44° C | 67% | 0 hPa | 0 mm | - | - | - |
| 1777896072 | 5° C | 68% | 0 hPa | 0 mm | - | - | - |
| 1777895772 | 4.44° C | 67% | 0 hPa | 0 mm | - | - | - |
* Rain latest hour (hover to see other rain measurements)
** Current wind speed in m/s (hover to see current wind gust speed)